Location: AUGO Fort Vermillion
(58.3775°N, 116.0058°W)
Time: 18:49:11
(UTC-06:00)

OTV 5 (USA 277) - Visible Passes

Search period start: 20 August 2018 00:00
Search period end: 30 August 2018 00:00
Orbit: 322 x 328 km, 54.5° (Epoch: 19 August)

Date Brightness Start Highest point End Pass type
(mag) Time Alt. Az. Time Alt. Az. Time Alt. Az.
20 Aug ? 00:01:50 10° SW 00:02:13 13° SW 00:02:13 13° SW visible
20 Aug ? 22:45:13 10° SSW 22:47:28 22° SSE 22:48:18 19° SE visible
21 Aug ? 00:18:57 10° WSW 00:19:22 13° WSW 00:19:22 13° WSW visible
21 Aug ? 23:02:06 10° SW 23:04:36 30° SSE 23:05:10 27° SE visible
22 Aug ? 00:36:09 10° WSW 00:36:12 10° WSW 00:36:12 10° WSW visible
22 Aug ? 23:19:10 10° WSW 23:21:46 35° S 23:21:50 35° S visible
23 Aug ? 22:02:23 10° SW 22:04:49 27° SSE 22:07:16 10° ESE visible
23 Aug ? 23:36:21 10° WSW 23:38:25 32° SSW 23:38:25 32° SSW visible
24 Aug ? 22:19:24 10° WSW 22:21:59 34° S 22:23:55 15° ESE visible
24 Aug ? 23:53:36 10° WSW 23:54:57 21° WSW 23:54:57 21° WSW visible
25 Aug ? 22:36:33 10° WSW 22:39:09 36° S 22:40:24 23° SE visible
26 Aug ? 00:10:57 10° WSW 00:11:26 13° WSW 00:11:26 13° WSW visible
26 Aug ? 22:53:46 10° WSW 22:56:20 33° S 22:56:52 30° SSE visible
27 Aug ? 23:11:05 10° WSW 23:13:19 25° SSW 23:13:19 25° SSW visible
28 Aug ? 21:53:58 10° WSW 21:56:33 34° S 21:58:45 13° ESE visible
28 Aug ? 23:28:35 10° WSW 23:29:47 16° SW 23:29:47 16° SW visible
29 Aug ? 22:11:14 10° WSW 22:13:43 28° SSW 22:15:13 17° SE visible
